Location: ????????
(56.0167°N, 38.0333°E)
Time: 03:02:37
(UTC+00:00)

NOSS 2-2 (E) - Pass Details

Date: 19 May 2025
Orbit: 390 x 1730 km, 63.3° (Epoch: 14 June)

Event Time Altitude Azimuth Distance (km) Brightness Sun altitude
Rises 21:38:27 0° 305° (NW) 2,368 7.0 -14.0°
Reaches altitude 10° 21:40:23 10° 313° (NW) 1,573 6.2 -13.9°
Maximum altitude 21:43:40 44° 28° (NNE) 722 4.4 -13.9°
Drops below altitude 10° 21:47:51 10° 101° (E) 2,012 6.1 -13.8°
Sets 21:50:37 0° 107° (ESE) 3,137 7.1 -13.8°
